DELTA 1 DEB, 12531

Orbit data source: Space-Track

DELTA 1 DEB, 12531 is space debris in SSO originally from a launch on Thu, 29 Jul 1976 UTC launched from the Air Force Western Test Range (AFWTR). Debris objects in space refer to the collection of defunct objects orbiting the Earth. Examples of debris include non-operational satellites, rocket bodies, and fragments generated from explosions, collisions, or faulty payload assembly.

Loading next visibility...
Identifier
12531, 1976-077DL
Orbit
SSO
Country
Flag of USUS
Related business
Manufacturer
Unknown
Mission
Spacecraft
Bus & Motor
Unknown
Mass
Unknown
Launch date (UTC)
1976-07-29 (50 years ago)
Launch vehicle
Unknown
Launch site
Air Force Western Test Range (AFWTR)
Object type
Payload
Rocket body
Debris
Shape & HBR
Unknown shape, 0.1 m
Radar Cross Section
Medium (>0.1 m² and <1 m²)

Expand to show TLE details & history
Last TLE update: 3 days ago

TLE from 3 days ago
0 DELTA 1 DEB
1 12531U 76077DL  26170.86628451 -.00000043  00000-0 -32369-4 0  9991
2 12531 101.7949 317.7024 0136976 105.3077  56.7576 12.18516252 47565
Epoch: 2026-06-19T20:47Z
TLE epoch observation values (Epoch: 2026-06-19T20:47:26.981Z)
Latitude
16.23527°
Longitude
-78.78004°
Altitude
1,542.056 km
Speed
7.123 km/s
True Right ascension
09h 24m 41s
True Declination
16° 09' 08"
Sunlit
Object was in daylight at epoch
Visualization orbit readout
Latitude
Unknown
Longitude
Unknown
Altitude
Unknown
Speed
Unknown
Apparent Right ascension
Unknown
Apparent Declination
Unknown
Sunlit
N/A
Visualization observer readout
Local Sidereal Time
13:18:38
Azimuth
Unknown
Elevation
Unknown
Doppler factor
Unknown
Orbital elements
Apogee altitude
1,705.836 km
Perigee altitude
1,487.366 km
Semi-major axis
7,974.738 km
Eccentricity
0.0137
Inclination
101.7949°
RAAN
317.7024°
Arg. of periapsis
105.3077°
True anomaly
58.08269°
Mean anomaly
56.7576°
Eccentric anomaly
57.41891°
Mean motion
3.04767 °/min
Orbital period
118.12 mins
BSTAR
-0.000032369
Loading maneuver chart data...
Computing Atmospheric mass density...
Loading historical data...
Loading historical data...
Loading historical data...
Loading historical data...
Loading historical data...
Loading historical data...
Loading historical data...

Documentation

Showing up to 5 results
|